This demonstration page uses our WeatherBlox Daily Observations layout. Learn more.

Left ArrowRight Arrow

39.29038, -76.61219

Hourly Observations for December 18, 2020

Temp ( °F °C ) Dew Point ( °F °C ) Humidity (%) Winds ( mph kmh ) Pressure ( in mb ) Visibility ( mi km ) Precip ( " mm )
12:54 am 00:54 Mostly Cloudy 32 0 23 -5 69 69 N 3 6 30.17 1022 10 16 0.00 0.00
1:50 am 01:50 Cloudy with Light Snow 32 0 25 -4 75 75 N 3 6 30.19 1022 10 16 0.00 0.00
1:54 am 01:54 Cloudy with Light Snow 32 0 24 -4.4 73 73 NNW 3 6 30.18 1022 10 16 0.00 0.00
2:54 am 02:54 Cloudy with Light Snow 32 0 24 -4.4 73 73 NNW 3 6 30.21 1023 9 14 0.00 0.00
3:54 am 03:54 Cloudy with Light Snow 32 0 24 -4.4 73 73 NNW 6 9 30.21 1023 8 13 0.00 0.00
4:54 am 04:54 Cloudy with Light Snow 31 -0.6 24 -4.4 76 76 NW 3 6 30.22 1023 8 13 0.00 0.00
5:54 am 05:54 Cloudy 31 -0.6 23 -5 72 72 NNW 3 6 30.25 1024 10 16 0.00 0.00
6:00 am 06:00 Cloudy with Light Snow 31 -0.6 24 -4.4 76 76 NW 5 7 30.26 1025 10 16 0.00 0.00
6:54 am 06:54 Cloudy with Light Snow 31 -0.6 22 -5.6 69 69 N 3 6 30.27 1025 10 16 0.00 0.00
7:07 am 07:07 Cloudy 31 -0.6 22 -5.6 69 69 NNE 3 6 30.28 1025 10 16 0.00 0.00
7:54 am 07:54 Mostly Cloudy 31 -0.6 24 -4.4 76 76 WNW 5 7 30.29 1026 10 16 0.00 0.00
8:25 am 08:25 Mostly Cloudy 31 -0.6 23 -5 72 72 NW 6 9 30.30 1026 10 16 0.00 0.00
8:54 am 08:54 Mostly Cloudy 32 0 23 -5 69 69 VRB 7 11 30.31 1026 10 16 0.00 0.00
9:54 am 09:54 Mostly Cloudy 32 0 22 -5.6 66 66 NW 6 9 30.33 1027 10 16 0.00 0.00
10:18 am 10:18 Cloudy 32 0 22 -5.6 66 66 NNW 3 6 30.35 1028 10 16 0.00 0.00
10:54 am 10:54 Cloudy 33 0.6 23 -5 66 66 WNW 6 9 30.35 1028 10 16 0.00 0.00
11:19 am 11:19 Cloudy 33 0.6 22 -5.6 64 64 WNW 7 11 30.35 1028 10 16 0.00 0.00
11:54 am 11:54 Cloudy 33 0.6 23 -5 66 66 WNW 6 9 30.34 1027 10 16 0.00 0.00
12:54 pm 12:54 Cloudy 35 1.7 25 -3.9 67 67 NW 6 9 30.33 1027 10 16 0.00 0.00
1:54 pm 13:54 Mostly Cloudy 36 2.2 25 -3.9 64 64 VRB 3 6 30.33 1027 10 16 0.00 0.00
2:49 pm 14:49 Cloudy 36 2 25 -4 65 65 NNW 3 6 30.34 1027 10 16 0.00 0.00
2:54 pm 14:54 Cloudy 36 2.2 26 -3.3 67 67 NNW 6 9 30.33 1027 10 16 0.00 0.00
3:38 pm 15:38 Cloudy 36 2.2 26 -3.3 67 67 NW 3 6 30.36 1028 10 16 0.00 0.00
3:54 pm 15:54 Cloudy 36 2.2 26 -3.3 67 67 NW 7 11 30.36 1028 10 16 0.00 0.00
4:54 pm 16:54 Mostly Cloudy 34 1.1 25 -3.9 70 70 NW 3 6 30.37 1028 10 16 0.00 0.00
5:54 pm 17:54 Clear 33 0.6 24 -4.4 70 70 NNW 3 6 30.38 1029 10 16 0.00 0.00
6:54 pm 18:54 Clear 32 0 24 -4.4 73 73 NNW 5 7 30.40 1029 10 16 0.00 0.00
7:54 pm 19:54 Mostly Clear 31 -0.6 23 -5 72 72 N 3 6 30.40 1030 10 16 0.00 0.00
8:54 pm 20:54 Mostly Clear 30 -1.1 22 -5.6 72 72 N 5 7 30.41 1030 10 16 0.00 0.00
9:54 pm 21:54 Mostly Clear 30 -1.1 21 -6.1 69 69 N 3 6 30.41 1030 10 16 0.00 0.00
10:54 pm 22:54 Mostly Clear 29 -1.7 21 -6.1 72 72 Calm 30.42 1030 10 16 0.00 0.00
11:54 pm 23:54 Partly Cloudy 26 -3.3 20 -6.7 78 78 Calm 30.41 1030 10 16 0.00 0.00

Powered by AerisWeather